Theta_e
315 315 315 315 316 316 317 317 317 319 320 321 319 318 317 315 315 307 301 310 310 312 308 305 305 302 302 297 297 300 290 283 281 283 280 284 282 285 286 283 284 285 284 285 288
314 314 314 315 315 316 316 317 317 318 320 320 318 315 315 313 306 302 311 316 313 310 302 301 298 299 294 293 294 293 289 280 283 284 282 282 283 283 283 282 282 283 285 285 286
312 313 313 314 314 315 316 316 318 318 319 318 318 313 314 308 301 300 313 315 312 306 303 300 298 297 291 292 290 287 283 284 284 285 285 282 282 283 283 280 281 282 283 285 285
311 312 312 313 313 314 315 316 317 317 318 317 316 313 309 304 290 302 311 313 311 307 303 300 299 293 289 287 290 284 286 286 286 287 285 282 283 280 282 281 285 285 285 285 285
311 311 311 312 312 313 314 315 315 316 316 315 313 311 304 295 294 300 304 309 306 304 300 298 295 294 289 289 290 285 285 286 287 286 284 285 282 281 281 284 286 286 286 285 285
310 310 311 311 312 312 313 314 312 313 314 314 312 308 299 290 297 297 296 303 304 303 299 299 295 295 290 288 289 287 286 286 288 287 286 283 283 284 284 286 286 286 286 286 286
309 310 310 311 311 312 312 313 311 313 312 312 308 299 295 290 296 297 296 296 302 303 298 299 298 296 293 287 291 289 286 288 288 288 287 287 281 282 286 287 287 287 286 287 288
308 309 310 310 311 311 311 312 312 310 310 311 305 300 291 295 297 294 295 296 297 297 301 301 301 296 293 293 290 288 288 288 285 288 289 288 284 285 287 286 285 286 286 286 287
308 308 309 310 310 312 310 310 308 307 306 303 299 299 290 298 292 293 293 291 293 294 295 295 295 291 290 289 288 289 286 285 285 285 285 286 286 287 288 287 286 286 287 286 287
308 309 309 310 311 312 308 307 305 304 297 294 293 294 291 288 291 291 293 292 291 291 293 292 291 289 289 288 282 283 284 282 283 284 283 286 287 288 288 287 286 286 287 287 287
308 308 308 310 311 306 301 300 298 298 293 287 286 286 288 291 291 291 291 290 291 290 286 288 286 281 282 284 284 283 282 281 282 283 281 284 284 288 289 287 287 287 286 286 287
307 307 308 309 308 302 298 293 291 292 288 288 287 287 289 289 288 290 293 290 289 285 285 288 282 283 283 284 283 282 281 281 283 282 282 282 283 287 288 289 289 288 287 287 287
307 307 308 307 303 299 296 293 297 295 290 287 287 287 287 289 285 287 289 286 285 283 285 285 282 282 282 283 282 282 281 280 280 284 282 281 284 283 285 289 290 289 289 288 287
306 307 307 306 302 295 293 295 298 298 291 286 286 287 288 288 285 287 287 286 284 282 281 282 282 281 281 280 281 280 283 282 282 282 282 281 285 284 285 283 286 289 289 288 287
306 306 304 302 297 294 294 298 298 296 287 286 286 291 287 287 285 286 287 287 283 281 281 279 280 280 280 280 282 281 283 282 282 281 279 280 281 287 281 283 285 286 289 289 288
305 304 301 299 298 295 297 296 296 290 285 284 286 284 285 285 284 286 286 287 285 282 282 279 280 281 281 282 283 284 282 281 281 280 284 276 278 287 284 286 287 290 288 289 288
303 302 298 297 295 297 296 297 290 288 286 286 283 283 283 283 283 283 282 283 284 284 282 278 278 279 280 281 283 283 281 285 284 284 282 276 276 286 288 287 288 289 290 289 289
301 298 296 295 296 296 297 296 286 286 284 282 282 282 282 281 282 282 282 283 281 282 282 282 282 278 279 279 279 280 280 282 276 278 278 272 278 287 287 286 288 288 289 290 289
298 294 296 296 296 296 297 287 287 285 285 282 281 281 281 281 281 281 281 283 283 283 286 280 279 277 278 279 279 278 279 278 272 262 273 279 281 287 286 285 286 287 286 288 288
295 293 291 294 295 298 291 288 285 286 284 283 284 285 283 280 280 280 282 285 282 282 282 283 280 276 276 278 278 278 279 278 278 277 276 280 276 283 289 289 287 286 287 289 290
296 301 293 294 296 294 286 286 285 286 286 285 285 283 283 282 281 281 284 284 282 280 282 281 282 275 276 275 277 274 276 275 277 277 279 277 282 287 287 290 287 290 289 290 290
295 293 293 294 289 280 285 283 286 284 284 284 284 285 284 282 280 280 282 285 283 283 281 283 286 280 280 276 276 276 278 278 282 277 274 273 276 287 288 287 285 289 289 290 290
292 290 294 292 284 284 283 282 284 283 284 284 284 284 284 282 283 282 282 282 283 283 283 283 283 282 281 275 275 274 276 277 273 276 276 278 281 283 284 284 286 286 290 291 290
289 286 287 288 285 284 284 283 283 284 283 283 282 282 281 280 282 284 282 282 281 282 284 284 281 281 278 283 281 273 274 276 277 275 279 278 280 286 286 284 286 288 289 288 290
289 285 285 282 282 282 282 282 282 282 281 282 280 281 280 281 280 279 280 282 279 281 282 283 279 279 280 279 278 278 279 275 273 277 277 281 282 286 286 287 289 290 289 289 287
285 285 285 283 284 282 282 281 282 284 284 281 279 283 283 281 281 277 280 281 281 278 279 278 279 275 275 276 276 274 279 279 277 277 278 280 280 287 290 290 288 287 286 287 287
285 285 288 286 283 284 283 283 283 285 285 286 284 283 282 285 287 287 287 285 284 281 279 277 277 276 273 273 275 274 279 281 282 282 280 276 281 287 286 286 287 287 286 286 288
Wind_Speed
13 13 13 14 15 16 15 15 14 13 13 13 11 8 5 5 7 26 28 21 17 19 7 5 8 5 11 9 12 1 5 5 4 2 4 3 2 1 2 5 3 3 2 3 8
11 12 12 13 14 14 14 14 14 14 13 13 12 5 2 4 9 27 25 26 22 15 9 7 12 12 8 8 8 7 6 4 3 3 4 3 2 2 1 2 3 1 2 1 2
10 11 11 12 12 13 14 14 13 14 14 12 10 10 3 3 5 15 30 26 22 4 12 7 8 15 16 10 10 8 7 6 6 9 5 3 3 4 2 1 0 1 1 0 1
9 9 9 11 12 14 15 14 12 11 12 13 11 5 11 4 6 12 26 21 19 10 9 14 13 9 9 12 9 11 9 5 4 4 4 4 2 1 4 1 2 1 2 3 2
11 11 11 11 12 13 15 15 13 11 11 10 10 11 6 11 5 9 19 21 12 9 18 9 14 13 13 12 19 16 8 10 11 9 7 8 4 4 3 3 2 2 2 2 1
11 11 11 11 12 13 14 14 13 10 8 11 10 3 6 11 6 12 13 11 18 17 17 12 13 16 14 7 9 7 11 10 5 4 3 4 3 3 5 6 5 5 5 5 5
11 11 10 11 11 12 13 11 10 9 5 8 6 5 15 6 1 8 9 6 11 15 16 9 2 3 7 10 12 15 10 9 6 6 3 2 2 4 6 8 7 9 8 8 9
9 9 10 11 11 12 12 9 8 8 6 8 4 3 7 1 1 5 8 2 8 7 6 4 6 10 6 13 6 4 4 2 5 3 7 7 3 8 10 8 8 7 7 7 9
9 9 9 10 11 12 13 8 6 2 6 6 3 3 5 3 2 5 4 4 4 3 6 4 5 6 1 2 2 5 5 5 2 4 2 4 4 9 13 11 9 8 9 8 9
12 12 12 13 13 11 11 3 5 2 6 2 4 2 3 4 4 5 3 3 4 2 2 9 6 5 10 7 6 7 3 2 3 5 4 3 4 7 14 14 12 11 10 10 11
12 13 14 15 14 12 4 1 1 1 13 6 2 2 3 7 2 6 5 2 2 8 6 6 11 12 12 8 4 2 3 5 3 3 6 4 9 6 13 14 14 13 14 14 14
12 13 13 12 9 8 3 6 3 2 3 3 1 1 1 3 3 9 8 3 6 6 5 3 7 3 6 7 6 4 4 5 5 3 6 7 18 14 13 18 18 16 16 16 15
14 14 14 14 1 5 7 4 2 2 2 3 2 3 3 4 3 8 7 2 6 5 10 6 3 1 1 6 10 6 5 6 6 10 2 14 6 4 8 15 13 18 16 16 18
13 14 16 14 3 0 4 1 1 1 2 2 2 2 2 2 2 2 3 2 3 3 2 5 1 1 2 3 4 6 6 9 10 12 4 9 4 4 7 12 18 19 19 19 19
12 14 11 14 5 3 2 3 1 3 3 1 1 1 1 3 2 2 1 1 3 3 3 3 1 1 1 2 2 2 4 5 8 6 6 3 3 2 1 9 21 21 23 22 20
11 13 6 4 4 1 4 2 2 7 5 1 2 3 2 2 2 4 1 5 3 2 4 4 2 1 1 2 2 3 6 4 2 3 3 5 6 5 6 6 4 13 20 21 21
8 9 6 2 2 4 2 1 6 4 2 2 1 2 1 2 1 3 2 2 3 1 1 4 3 2 1 3 3 2 4 4 3 2 3 2 6 12 8 7 5 4 13 18 19
6 5 6 3 5 5 2 5 3 1 6 2 1 1 3 2 1 4 3 4 3 1 1 2 3 4 1 2 1 3 1 2 6 5 8 2 8 4 3 4 7 10 7 9 17
4 2 2 5 6 2 2 4 7 6 2 6 2 1 2 0 1 2 3 4 3 10 4 4 4 2 2 2 3 4 2 3 5 2 4 3 7 16 3 12 13 12 9 13 14
1 2 1 7 6 2 5 6 5 4 5 1 3 5 4 2 1 1 2 3 3 4 3 1 4 1 2 2 3 3 6 2 1 4 6 6 6 9 5 5 2 7 15 12 13
2 1 2 4 2 3 4 8 5 4 4 5 5 4 5 3 5 4 3 3 3 5 2 3 2 3 2 11 9 6 4 2 3 3 6 7 4 10 10 7 5 5 9 12 13
2 2 2 3 4 1 4 7 2 4 2 3 3 6 7 6 7 6 9 8 5 7 8 6 4 6 7 3 3 2 3 9 5 6 5 5 14 7 10 4 4 7 7 7 10
4 1 2 2 5 5 2 3 4 6 7 8 7 7 4 8 5 8 5 1 7 7 6 5 4 6 5 2 2 6 6 4 3 0 10 8 15 6 3 6 9 11 9 9 9
3 2 3 3 2 2 4 4 5 1 2 1 1 3 2 4 5 5 6 2 3 3 4 6 3 8 20 17 4 8 9 12 10 7 14 20 43 8 15 13 10 12 13 15 15
3 1 0 3 3 2 2 3 1 1 1 2 3 1 3 3 3 6 3 4 2 3 2 2 16 8 20 12 7 22 20 15 19 20 20 34 36 7 18 18 20 18 16 16 17
4 3 1 3 2 4 3 2 3 5 2 2 1 4 6 2 3 4 6 2 5 3 3 1 8 2 26 3 8 24 20 20 25 26 28 34 44 19 25 26 25 21 14 16 19
2 1 0 6 4 4 5 4 5 4 2 4 4 2 6 12 9 12 11 13 14 8 5 5 2 2 21 3 5 23 22 23 26 25 22 28 32 24 28 29 27 14 12 19 17
Wind_Direction
35 31 26 21 19 16 11 8 2 354 342 338 338 289 269 348 344 33 32 347 343 347 323 33 60 55 45 55 30 336 95 82 67 88 128 165 174 49 344 91 40 25 4 323 318
34 30 22 17 14 12 10 6 358 352 353 357 1 34 239 20 28 27 356 353 360 357 43 21 44 58 60 37 34 33 61 69 5 60 127 88 93 97 224 166 103 184 79 329 333
29 23 15 10 7 5 5 1 359 355 360 358 2 18 355 333 55 356 352 343 4 332 47 61 64 63 60 44 18 32 83 128 75 108 118 118 66 12 153 95 25 83 183 183 177
26 15 7 2 357 356 358 358 356 359 2 7 9 34 56 352 54 340 350 350 3 32 73 47 39 62 74 53 44 100 73 93 116 112 114 62 92 104 35 341 346 48 360 319 43
15 3 355 354 352 353 353 352 349 355 1 5 14 18 56 61 67 321 339 353 8 11 42 47 59 58 84 99 76 77 91 80 98 94 97 138 140 155 176 200 189 134 133 206 324
12 360 351 351 351 351 351 352 348 349 360 16 17 45 69 67 324 339 338 2 19 35 41 47 81 92 81 72 63 134 123 137 116 113 132 137 194 269 212 195 216 197 184 192 205
11 4 359 353 348 345 345 346 356 353 356 33 30 84 68 85 325 354 9 14 28 45 58 45 51 42 125 107 127 141 109 134 160 167 150 141 153 249 173 190 203 205 202 197 199
17 3 355 348 341 337 337 331 334 344 0 340 30 78 83 292 208 19 348 209 31 34 65 55 47 74 41 112 142 204 197 152 69 133 157 209 140 185 181 194 205 209 206 201 208
8 0 352 342 335 328 329 316 330 288 3 355 35 43 79 155 18 341 16 348 316 79 49 31 69 65 125 276 151 36 79 44 137 45 297 260 136 172 183 193 202 201 203 214 212
358 354 348 343 337 332 328 300 3 37 2 92 88 130 55 353 319 331 350 346 38 320 113 33 31 60 37 354 30 356 31 25 18 3 321 294 264 181 189 202 208 201 201 205 212
357 353 348 344 340 352 355 146 346 73 37 35 17 39 338 315 265 8 2 316 10 59 43 39 52 31 11 22 8 28 9 348 325 347 302 266 276 234 195 210 216 210 206 208 208
357 347 345 343 345 1 40 71 121 128 73 28 2 7 338 332 342 4 353 46 44 39 323 123 73 21 318 334 346 348 322 357 270 291 303 310 287 264 205 217 215 214 214 211 203
357 350 345 341 59 41 65 72 346 268 73 46 42 1 334 342 63 339 358 54 52 61 31 62 88 317 97 343 343 356 358 345 311 311 235 310 249 215 214 220 219 226 226 218 211
355 351 348 335 83 243 55 77 288 271 68 54 24 37 305 353 57 325 14 41 65 100 74 71 87 4 356 70 12 329 356 320 319 329 327 359 301 247 207 226 222 225 220 220 213
355 352 2 30 119 57 48 325 270 237 358 41 347 284 324 25 333 65 35 41 93 115 215 81 147 57 58 49 321 266 322 316 317 322 300 22 268 188 254 243 233 223 221 218 213
358 357 349 31 72 67 313 297 235 44 262 351 306 336 312 46 37 314 17 58 95 126 58 89 122 282 66 159 190 301 282 265 280 303 273 359 339 274 200 219 249 217 217 216 210
5 28 44 356 51 323 287 233 29 139 360 257 200 360 353 335 4 4 342 224 228 290 227 156 152 130 247 219 180 253 292 328 321 328 310 22 287 264 276 245 254 241 220 214 212
43 37 34 48 333 316 244 55 131 264 225 59 65 293 251 38 120 327 301 276 237 185 156 249 253 181 157 337 64 40 39 152 296 316 312 63 245 254 278 310 270 263 245 228 212
129 57 52 0 343 304 58 82 215 207 124 152 141 189 279 124 283 324 227 271 239 196 215 188 237 109 18 52 318 130 220 61 104 96 263 231 267 278 263 256 252 247 234 229 220
91 98 34 334 337 9 77 234 229 193 134 138 214 199 226 199 194 169 211 183 212 210 342 302 270 20 79 169 83 254 141 151 139 275 281 229 238 246 277 258 214 244 236 236 230
95 218 63 341 278 55 181 222 236 221 159 176 208 234 229 243 209 209 248 230 181 153 135 142 260 115 182 204 186 158 193 221 324 241 244 298 230 220 231 255 236 264 238 229 232
193 206 13 308 84 66 189 194 210 180 170 229 211 210 204 183 208 236 230 231 156 157 168 183 194 246 247 79 358 300 206 177 216 207 260 306 254 208 217 250 229 260 247 247 240
160 103 12 334 177 207 236 256 260 168 194 187 226 216 183 188 280 201 200 259 180 178 178 179 203 293 255 162 353 222 198 203 94 29 204 250 262 41 317 238 247 258 258 261 245
125 157 355 33 15 176 163 203 233 260 346 323 359 95 103 217 249 269 217 228 186 199 154 143 195 230 258 273 105 230 195 208 201 218 263 230 270 225 264 263 267 262 258 267 258
22 129 55 180 254 149 71 69 35 34 10 30 60 77 37 284 253 262 293 306 201 246 83 252 262 232 260 285 286 279 267 206 208 230 239 269 262 259 254 264 265 264 267 270 267
129 151 89 129 81 107 171 205 196 318 64 353 331 359 10 264 269 296 336 298 259 61 190 65 276 354 285 253 257 275 271 256 233 244 253 260 267 280 286 285 280 274 271 264 270
115 106 94 142 133 156 173 170 152 161 113 195 175 233 253 254 254 269 261 260 264 276 234 200 221 199 266 92 307 269 264 254 250 241 238 250 261 283 275 271 273 287 248 266 275